www.pogodaiklimat.ru

Погода и климат >> Архив погоды >> Россия >> Бурятия >> Томпа


ПОГОДА в Томпе

  • Прогноз погоды в Томпе
  • Монитор погоды в Томпе

АРХИВ ПОГОДЫ в Томпе

Время (UTC), дата Ветер
(напр.,м/с)
 
Видим.   Явления Облачность Т
(С)
Тd
(С)
f
(%)
Тe
(С)
Тes
(С)
Комфортность P
(гПа)
Po
(гПа)
Тmin
(С)
Tmax
(С)
R
(мм)
R24
(мм)
S
(см)
18 10.09 СВ 1 н/о {ливн. осадки} 4/4 600 м
[Cb cap]
+9.1 +7.8 92 +8 +8 1011.8 957.0
00 11.09 Ю 6 50 км 10/10 600 м
[Cb cap]
+14.0 +9.7 75 +12 +12 1011.9 958.0 +8.0 0.6
06 11.09 ЮЗ 2 50 км 10/10 600 м
[Cb cap]
+15.5 +8.0 61 +15 +15 1010.8 957.2
12 11.09 штиль 0 н/о слаб. дождь 10/10 600 м
[Sc]
+10.9 +10.1 95 +10 +10 1009.1 954.7 +15.5 1
18 11.09 С 1 н/о дождь 10/10 600 м
[Sc]
+9.5 +9.1 97 +9 +9 1006.0 951.6
00 12.09 ЮВ 1 4000 м ливневой дождь 10/10 600 м
[Cb cap]
+8.4 +8.4 100 +7 +7 1006.6 951.9 +6.6 53
06 12.09 Ю 6 50 км {ливн. осадки} 3/3 600 м
[Cb cap]
+14.3 +9.7 74 +12 +14 1006.8 953.2
12 12.09 штиль 0 н/о {ливн. осадки} 9/9 600 м
[Cb cap]
+9.4 +7.5 88 +9 +9 1009.6 954.9 +14.3 1
18 12.09 штиль 0 н/о 10/10 600 м
[Cb cap]
+8.1 +6.6 90 +7 +7 1012.3 957.2
00 13.09 С 1 50 км 10/10 600 м
[Cb cap]
+6.1 +0.8 69 +5 +5 1013.7 958.1 +4.8
06 13.09 ЮЗ 7 50 км 10/10 600 м
[Cb cap]
+9.3 +0.1 53 +6 +6 1012.8 957.9
12 13.09 Ю 5
{14}
н/о 10/10 600 м
[Cb cap]
+7.5 +4.8 83 +4 +4 1010.4 955.3 +9.3
18 13.09 СВ 1 н/о 10/10 600 м
[Cb cap]
+4.6 +2.4 86 +3 +3 1009.0 953.4
00 14.09 ЮЗ 9-14
{14}
50 км 10/10 600 м
[Cb cap]
+9.1 +2.2 62 +5 +5 1005.5 951.0 +3.6
06 14.09 ЮЗ 11 50 км 9/9 600 м
[Cb cap]
+9.7 +2.4 60 +5 +5 1004.0 949.6
12 14.09 СЗ 1
{22}
н/о 4/4 600 м
[Cb cap]
+2.3 -3.3 66 +1 +1 1013.2 956.9 +9.7
18 14.09 С 1 н/о 9/8 600 м
[Cb cap Ci fib]
+1.6 -8.3 48 +1 +1 1017.5 960.7
00 15.09 В 1 50 км 9/8 600 м
[Cb cap Ac trans Ci fib]
+0.6 -6.3 60 -1 -1 1018.6 961.6 -2.4
06 15.09 ЮЗ 6-10
{11}
50 км 9/8 600 м
[Cb cap Ac lent Ci fib]
+6.6 -4.3 46 +3 +3 1016.8 960.9
12 15.09 Ю 4
{10}
н/о 10/10 600 м
[Cb cap]
+4.9 -3.0 57 +1 +1 1015.5 959.5 +5.6
18 15.09 В 2 н/о 10/10 600 м
[Cb cap]
+3.9 -4.8 53 +2 +2 1012.6 956.6
00 16.09 ЮЗ 5 50 км {ливн. осадки} 10/10 600 м
[Cb cap]
+8.2 +5.1 81 +5 +5 1008.6 953.7 +1.3 0.0
06 16.09 СВ 1 50 км слаб. ливневой снег 9/9 600 м
[Cb cap]
+8.2 -2.9 45 +8 +9 1011.7 956.5
12 16.09 З 1 н/о {ливн. осадки} 3/3 600 м
[Cb cap]
+5.6 -3.5 52 +5 +5 1017.7 961.7 +8.2 0.3
18 16.09 СВ 1 н/о 3/3 600 м
[Cb cap]
+0.5 -2.3 81 -1 -1 1023.8 966.5
00 17.09 СВ 1 50 км 3/3 600 м
[Cb cap]
-0.5 -2.9 84 -3 -2 1027.2 969.5 -2.1
06 17.09 ЮЗ 3 50 км 9/9 600 м
[Cb cap]
+7.6 -2.4 49 +5 +6 1026.4 970.4
12 17.09 Ю 2 н/о 10/10 600 м
[Cb cap]
+6.8 -2.5 51 +5 +5 1026.0 969.9 +7.6

 

Местоположение метеостанции Томпа (Бурятия, Россия): широта 55.11 долгота 109.70 высота над уровнем моря 465 м.

В архиве по умолчанию представлена погода в Томпе за последнюю неделю. Архивные данные за месяц целиком и за предыдущие месяцы, начиная с января 2011 года, Вы можете получить, выбрав интересующий диапазон дат из раскрывающегося списка и нажав кнопку "Ввод!".


*Определитесь, кто Вы:
робот инопланетянин человек

Внимание! Время в таблицах - всемирное. Для получения местного времени необходимо прибавить поправку, которая равна 8 ч.

Смотрите также архив погоды в соседних городах и на ближайших метеорологических станциях:

Погода в Нижнеангарске (Бурятия, Россия) (76 км)
Погода в Баргузинском Заповеднике (Бурятия, Россия) (88 км)
Погода в Даване (Бурятия, Россия) (91 км)
Погода в Курумкане (Бурятия, Россия) (96 км)
Погода в Караме (Иркутская область, Россия) (134 км)
Погода в Солнечной (Иркутская область, Россия) (154 км)
Погода на Большом Ушканьем Острове (Бурятия, Россия) (160 км)
Погода в Баргузине (Бурятия, Россия) (166 км)
Погода в Тырке (Иркутская область, Россия) (187 км)
Погода в Казачинске (Иркутская область, Россия) (188 км)

Пояснения к столбцам:

Ветер - указаны скорость ветра в м/с - средняя за 10 мин, порывы в срок и между сроками (в фигурных скобках) и направление, откуда дует ветер: С - северный, СВ - северо-восточный, В - восточный, ЮВ - юго-восточный, Ю - южный, ЮЗ - юго-западный, З - западный, СЗ - северо-западный.
Видимость - горизонтальная дальность видимости в метрах или километрах. При видимости от 1 до 10 км при отсутствии осадков обычно наблюдается дымка, при ухудшении видимости до 1 км и менее - туман. В сухую погоду видимость может ухудшаться дымом, пылью или мглою.
Явления - указаны атмосферные явления, наблюдавшиеся в срок или в последний час перед сроком; фигурными скобками обозначены явления, наблюдавшиеся между сроками (за 1-3 часа до срока); квадратными скобками обозначены град или гололедные отложения с указанием их диаметра в мм.
Облачность - указаны через наклонную черту общая и нижняя облачность в баллах и высота нижней границы облаков в метрах; квадратными скобками обозначены формы облаков: Ci - перистые, Cs - перисто-слоистые, Cc - перисто-кучевые, Ac - высококучевые, As - высокослоистые, Sc - слоисто-кучевые, Ns - слоисто-дождевые, Cu - кучевые, Cb - кучево-дождевые. Подробнее классификацию облаков см. в Атласе облаков (PDF).
T - Температура воздуха - температура, измеренная на высоте 2 м над землей.
Td - Температура точки росы - температура, при понижении до которой содержащийся в воздухе водяной пар достигнет насыщения.
f - Относительная влажность воздуха - влажноcть воздуха, измеренная на высоте 2 м над землей.
Te - Эффективная температура - температура, которую ощущает одетый по сезону человек в тени. Характеристика душности погоды. При расчете учитывается влияние влажности воздуха и скорости ветра на теплоощущения человека.
Tes - Эффективная температура на солнце - температура, которую ощущает человек, с поправкой на солнечный нагрев. Характеристика знойности погоды. Зависит от высоты солнца над горизонтом, облачности и скорости ветра. Ночью, в пасмурную погоду, а также при ветре 12 м/с и более поправка равна нулю.
P - Атмосферное давление - приведенное к уровню моря атмосферное давление.
Po - Атмосферное давление - измеренное на уровне метеостанции атмосферное давление.
Tmin - Минимальная температура - минимум температуры воздуха на высоте 2 м над землей.
Tmax - Максимальная температура - максимум температуры воздуха на высоте 2 м над землей.
R - Количество осадков - Количество выпавших осадков за период времени, мм. При наведении курсора мыши на число - период времени, за который выпало указанное количество осадков.
R24 - Количество осадков - Количество выпавших осадков за 24 часа, мм.
S - Снежный покров - Высота снежного покрова, см. При наведении курсора мыши на число - состояние снежного покрова и степень покрытия местности в баллах.